New York State Corporations
Zip 11228

Jurisdiction: New York State
Source: New York State Department of State (NYSDOS)

This dataset includes 2.43 million business entities and corporations registered with New York State Department of State (NYSDOS). Each entity is registered with DOS ID, business name, location, registered agent, CEO, etc.

11228 · Search Result

Entity Name Office Address CEO InitialFiling
Castiglione Architectural Design LLC 7014 13th Avenue, Suite 202, Brooklyn, New York 11228 2019-06-28
Sasa Nail Inc 6920 13th Ave 2fl, Brooklyn, New York 11228 2019-06-28
Supreme Macaroni Company Inc. 1275 74th Street, Brooklyn, New York 11228 2019-06-28
Page Capital Management Inc. 7014 13th Avenue, Suite 210, Brooklyn, New York 11228 2019-06-27
Great Queens LLC 203 Bay 7th Street, Brooklyn, New York 11228 2019-06-27
National Latino Peace Officers Association - Nlpoa Greater New York Chapter, Inc. 7014 13th Avenue, Suite 202, Brooklyn, New York 11228 2019-06-26
Kwatt.io LLC Brooklyn, New York 11228 2019-06-26
Wwl Ny Inc 153 Dahlgren Place, 2/fl, Brooklyn, New York 11228 2019-06-25
M & I Stone Corp 1021 86th Street, Brooklyn, New York 11228 2019-06-25
Logistics Capital Resources, Inc. 7014 13th Avenue Suite 202, Brooklyn, New York 11228 2019-06-25
214a 14th Street LLC 1114 78th Street, Brooklyn, New York 11228 2019-06-24
Hard Rock Nails Inc 84-18 13th Ave., Brooklyn, New York 11228 2019-06-24
Paco International Trading Inc 1225 79th St, Brooklyn, New York 11228 2019-06-24
Littman & Ponce De Leon, Inc 581 Greene Ave, Brooklyn, New York 11228 2019-06-21
Hr Management Group Inc 6905 11th Ave, Brooklyn, New York 11228 2019-06-20
Christian Consulting Inc. 1326 76th Street, Brooklyn, New York 11228 2019-06-19
Rite Way Paint Crafts Inc. 1019 80th St., Brooklyn, New York 11228 2019-06-18
Tech Boro LLC 1434 71st St., Brooklyn, New York 11228 2019-06-18
Whole Land LLC 1335 73rd Street, Brooklyn, New York 11228 2019-06-18
Sa Chiropractic P.C. 8411 13 Ave, Brooklyn, New York 11228 2019-06-18
Healthy Chiropractic P.C. 8411-13 Avenue, Brooklyn, New York 11228 2019-06-18
Susan Lee Md, P.C. 7522 13th Ave, Brooklyn, New York 11228 2019-06-18
8018 LLC 8018 15th Avenue, Brooklyn, New York 11228 2019-06-18
Bizpay Inc 1456 71st Street, Brooklyn, New York 11228 2019-06-18
The Pipeline Music Group LLC 500 Sterling Pl, Apt 5e, Brooklyn, New York 11228 2019-06-17
Nationwide Plumbers Ny Corp 6923 8th Avenue, Brooklyn, New York 11228 2019-06-14
The 800 Club Inc. 1222 70th St, Brooklyn, New York 11228 2019-06-13
Cornerstone Counseling Services Lcsw P.C. 1512 74th St., Brooklyn, New York 11228 2019-06-12
C&n Property Referral & Consulting Services Corp. 8308 14th Ave., Brooklyn, New York 11228 2019-06-12
Woodside Construction Inc 1405 70th Street, 1c, Brooklyn, New York 11228 2019-06-12
Dolce Couture LLC 8123 14th Avenue, Brooklyn, New York 11228 2019-06-12
Nyc Lifting & Rigging LLC 7524 11th Ave, Apt 1f, Brooklyn, New York 11228 2019-06-11
445 Bolton Ave LLC 1462 74th Street, Brooklyn, New York 11228 2019-06-11
G&g Food Corp. 1230 72nd Street, Brooklyn, New York 11228 2019-06-10
Blanco Limo, Inc 7426 15th Avenue, Beooklyn, New York 11228 2019-06-10
Amazin Barber Shop LLC 8118 13th Ave., Brooklyn, New York 11228 2019-06-10
Circle Tour Bus Inc 1435 82nd St, Brooklyn, New York 11228 2019-06-06
Chimerica Women Association Inc 1306 70th Street, Brooklyn, New York 11228 2019-06-06
Uca Tutoring Center Inc. 8407 15th Avenue, Brooklyn, New York 11228 2019-06-05
Roseroad Designs LLC 1315 78th Street, Brooklyn, New York 11228 2019-06-03
Alumex Corp. 6924 13th Avenue, Apartment 3f, Brooklyn, New York 11228 2019-05-31
Hand Power Construction Inc. 942 72nd Street, Brooklyn, New York 11228 2019-05-30
Jgz Realty LLC 8320 13th Avenue #086, Brooklyn, New York 11228 2019-05-30
Km 288, Inc. 1435 83rd Street, Brooklyn, New York 11228 2019-05-29
1569 83rd Property LLC 1571 83rd Street, Brooklyn, New York 11228 2019-05-23
Green Apple Transport LLC 83 Bay 7th Street, Brooklyn, New York 11228 2019-05-22
Wang's Brother Inc 1268 71 St 1fl, Brooklyn, New York 11228 2019-05-22
111 Marine Way LLC 211 Bay 8th St., Brooklyn, New York 11228 2019-05-21
Jmj Property Preservation & Management LLC 901 80th St. #2j, Brooklyn, New York 11228 2019-05-21
Marry Ny Inc 297 Bay 8th St, Brooklyn, New York 11228 2019-05-20
Si Naughton LLC 1521 70th Street B1, Brooklyn, New York 11228 2019-05-15
Junlong Trading Inc 6922 8th Ave, Brooklyn, New York 11228 2019-05-14
Brooklyn's Famous Italian Heroes LLC 7803 15th Avenue, Brooklyn, New York 11228 2019-05-14
Ibz Global Inc 901 73rd Street Apt B304, Brooklyn, New York 11228 2019-05-10
Landpax Bhc LLC 691 92nd Street, Brooklyn, New York 11228 2019-05-09
Shiho Beauty Spa Inc. 8414 13 Ave, Brooklyn, New York 11228 2019-05-09
Eatafrique Hospitality Management Group LLC 7014 13th Ave, Suite 202, Brooklyn, New York 11228 2019-05-09
Stretched Out, Inc. 7024 Fort Hamilton Parkway, Brooklyn, New York 11228 2019-05-08
Dyker One Property Inc. 7012 15th Avenue, Brooklyn, New York 11228 2019-05-08
Lavish Radiance LLC 7014 13th Avenue, Ste. 202, Brooklyn, New York 11228 2019-05-07
Rz Motors Inc 188 Bay 11th St 1 Fl, Brooklyn, New York 11228 2019-05-07
Wyld Thymes LLC 251 Dahlgren Place, Brooklyn, New York 11228 2019-05-06
Hercules Business Seminars Inc. 1023 74th Street, Brooklyn, New York 11228 2019-05-03
Elohim Deli & Grill Inc. 7506 13th Avenue, Brooklyn, New York 11228 2019-05-03
E Com Hub, Inc 1308 81st Street, Suite # 2f, Brooklyn, New York 11228 2019-05-03
Hl Acupuncture, P.C. 7312 15th Avenue., 3rd Fl, Brooklyn, New York 11228 2019-05-02
71st Floor Films Inc. 1053 80th St., Brooklyn, New York 11228 2019-05-02
Perlla Corp 7521 Fort Hamilton Parway, 2fl, Brooklyn, New York 11228 2019-05-02
Good Deals Overseas Trading, Corp. 1259 Bay Ridge Pkwy, Brooklyn, New York 11228 2019-05-01
Aleebaba, Inc. 1226 74th Street, Brooklyn, New York 11228 2019-04-30
7210 Medical Management, LLC 7210 13th Ave., 3rd Fl., Brooklyn, New York 11228 2019-04-30
Brooklyn Automotive Inc. 127 Bay 10th Street, Brooklyn, New York 11228 2019-04-30
Shun Feng Car Service Inc 1015 70th St 2fl, Brooklyn, New York 11228 2019-04-29
Jks Solutions LLC 1230 73rd St., Brooklyn, New York 11228 2019-04-29
Path Beacon Group, Inc. 641 88 Street #2b, Brooklyn, New York 11228 2019-04-26
T & Z Hype Inc 1509 76th Street Fl 2, Brooklyn, New York 11228 2019-04-25
Cairo Rx Inc. 11 Bay 8th Street, Brooklyn, New York 11228 2019-04-25
Kls Life Inc 1370 85th Street, Brooklyn, New York 11228 2019-04-24
Byrsa Corp 665 88th Street, A18, Brooklyn, New York 11228 2019-04-24
Busy Bee Ot, Pllc 1558 80th St., Brooklyn, New York 11228 2019-04-23
Jeab LLC 647 90th Street, Brooklyn, New York 11228 2019-04-23
Doreen Daly Ot, P.C. 1022 78th Street, Brooklyn, New York 11228 2019-04-22
Je T'aime Inc 7302 13th Ave Store 1, Brooklyn, New York 11228 2019-04-22
Aha Endeavors, LLC 1420 Bath Ave, Brooklyn, New York 11228 2019-04-19
Goat Cigar Club LLC 8753 14th Avenue, Brooklyn, New York 11228 2019-04-18
Proximity Realty Inc. 1122 East 74th Street, Brooklyn, New York 11228 2019-04-18
33rodz Baseball, Inc. 1052 80th Street, Brooklyn, New York 11228 2019-04-18
Mixx Boutique LLC 214 Bay 8th Street, Brooklyn, New York 11228 2019-04-18
Bkny 1059 LLC 1059 Bay Ridge Pkwy, Brooklyn, New York 11228 2019-04-18
Ho & Ng Group LLC 1345 86th Street, Brooklyn, New York 11228 2019-04-17
Kkfa Logistics Inc 1220 78th St 2fl, Brooklyn, New York 11228 2019-04-16
Bay 11 Ventures LLC 1240 82nd Street, Brooklyn, New York 11228 2019-04-15
Booba Color Bar LLC 7811 15th Avenue, Brooklyn, New York 11228 2019-04-12
M.a. Loft LLC 7215 10th Avenue, Brooklyn, New York 11228 2019-04-12
Lion International Corp 6916 New Utrecht Ave, Brooklyn, New York 11228 2019-04-09
Karavan Grill, LLC 8023 Seventh Avenue, Suite 101, Brooklyn, New York 11228 2019-04-09
Black Bat Builders Co. 75 Battery Avenue, Brooklyn, New York 11228 2019-04-08
Yao Hao Renovation Inc 928 77th Street Fl 2, Brooklyn, New York 11228 2019-04-08
Remarkable Party Rentals LLC 1275 74th St., Store Front, Brooklyn, New York 11228 2019-04-08
M.i.a. Kitchen Equipment Corporation 703 86th St., Ste. 2, Brooklyn, New York 11228 2019-04-08